Location: Jastrzębia Góra
(54.8312°N, 18.3037°E)
Time: 07:46:09
(UTC+01:00)

ISS - Pass Details

Date: 29 January 2019
Orbit: 403 x 411 km, 51.6° (Epoch: 18 February)

Event Time Altitude Azimuth Distance (km) Brightness Sun altitude
Rises 19:53:13 0° 269° (W) 2,341 1.1 -30.7°
Reaches altitude 10° 19:55:22 10° 262° (W) 1,480 -0.2 -31.0°
Enters shadow 19:55:29 11° 262° (W) 1,432 -0.3 -31.0°
